Location: Grust
(42.8833°N, 0.0333°W)
Time: 14:48:48
(UTC+00:00)

Cosmos 1697 Rocket - Pass Details

Date: 25 October 2020
Orbit: 831 x 845 km, 71.0° (Epoch: 24 November)

Event Time Altitude Azimuth Distance (km) Brightness Sun altitude
Rises 19:52:40 0° 220° (SW) 3,364 6.1 -31.8°
Reaches altitude 10° 19:55:11 10° 226° (SW) 2,435 5.4 -32.3°
Maximum altitude 20:00:34 48° 300° (WNW) 1,086 3.5 -33.2°
Enters shadow 20:00:40 48° 303° (WNW) 1,087 3.5 -33.3°
